| time (UTC) | temp C | wind direction | speed KPH | gust KPH | rain 1hr cm | rain 24hr cm | rain mn cm | humidity % | barometer mb |
| 20260905002028 | 7 | 270 | 96.6 | 114.3 | 0.00 | 0.00 | 0.00 | 99 | |
| 20260904232048 | 7 | 260 | 61.2 | 78.9 | 0.00 | 0.00 | 0.00 | 99 | |
| 20260904222417 | 8 | 240 | 53.1 | 78.9 | 0.00 | 0.00 | 0.00 | 99 | |
| 20260904212031 | 10 | 270 | 53.1 | 72.4 | 0.00 | 0.00 | 0.00 | 99 | |
| 20260904202029 | 7 | 230 | 46.7 | 83.7 | 0.00 | 0.00 | 0.00 | 99 | |
| 20260904192306 | 12 | 200 | 53.1 | 103.0 | 0.00 | 0.00 | 0.00 | 93 | |
| 20260904182029 | 13 | 200 | 49.9 | 96.6 | 0.00 | 0.00 | 0.00 | 87 | |
| 20260904172031 | 12 | 210 | 49.9 | 95.0 | 0.00 | 0.00 | 0.00 | 99 | |
| 20260904162306 | 12 | 210 | 38.6 | 90.1 | 0.00 | 0.00 | 0.00 | 99 | |
| 20260904152039 | 12 | 200 | 57.9 | 107.8 | 0.00 | 0.00 | 0.00 | 99 | |
| 20260904142029 | 12 | 210 | 53.1 | 103.0 | 0.00 | 0.00 | 0.00 | 99 | |
| 20260904132236 | 12 | 210 | 64.4 | 111.0 | 0.00 | 0.00 | 0.00 | 99 | |
| 20260904122004 | 11 | 220 | 90.1 | 133.6 | 0.00 | 0.00 | 0.00 | 99 | |
| 20260904112011 | 10 | 220 | 57.9 | 111.0 | 0.00 | 0.00 | 0.00 | 99 | |
| 20260904102419 | 10 | 210 | 41.8 | 86.9 | 0.00 | 0.00 | 0.00 | 99 | |
| 20260904092032 | 10 | 210 | 35.4 | 72.4 | 0.00 | 0.00 | 0.00 | 99 | |
| 20260904082031 | 10 | 230 | 49.9 | 75.6 | 0.00 | 0.00 | 0.00 | 99 | |
| 20260904072220 | 8 | 250 | 72.4 | 96.6 | 0.00 | 0.00 | 0.00 | 99 | |
| 20260904062003 | 8 | 250 | 69.2 | 86.9 | 0.00 | 0.00 | 0.00 | 99 | |
| 20260904052011 | 7 | 260 | 83.7 | 0.0 | 0.00 | 0.00 | 0.00 | 99 | |
| 20260904042404 | 7 | 260 | 72.4 | 0.0 | 0.00 | 0.00 | 0.00 | 99 | |
| 20260904031945 | 7 | 270 | 61.2 | 78.9 | 0.00 | 0.00 | 0.00 | 99 | |
| 20260904022010 | 7 | 270 | 78.9 | 99.8 | 0.00 | 0.00 | 0.00 | 99 | |
| 20260904012306 | 7 | 260 | 90.1 | 0.0 | 0.00 | 0.00 | 0.00 | 99 |